User: anonymous   Login
Location: Little Arabia
(41.4620°N, 81.7687°W)
Time: 14:43:37
(UTC+00:00)
Language:

Lacrosse 5 - Orbit

View from above orbital plane
View from above orbital plane
View from above satellite
View from above satellite

Ground track
Ground track

The orbit data is extracted from the following two-line orbital elements,

1 28646U 05016A   21018.71824495 0.00000000  00000-0  00000-0 0    03
2 28646  57.0106 272.6328 0009643 141.1811 218.8189 14.51858605    06
Epoch (UTC): 18 January 2021 17:14:16
Eccentricity: 0.0009643
inclination: 57.0106°
perigee height: 713 km
apogee height: 726 km
right ascension of ascending node: 272.6328°
argument of perigee: 141.1811°
revolutions per day: 14.51858605
mean anomaly at epoch: 218.8189°
orbit number at epoch: 0

The dashed part of the orbit path shows where the satellite is in the earth's shadow,  

DLR